[[{"header":{"parameterUnit":"m.s-1","parameterCategory":1,"la1":30.2991,"la2":30.254,"lo1":-89.0895,"lo2":-89.0444,"dy":0.0017,"dx":0.0017,"nx":28,"ny":28,"refTime":"2025-05-18T03:00:00:Z","depth":0,"parameterNumber":2,"parameterNumberName":"U-component_of_WINDS"},"data":[0,0,0,0,0,0,0,0,0,0,0,0,0,0,0,0,0,0,0,0,0,0,0,0,0,0,0,0,0,0,0,0,0,0,0,0,0,0,0,0,0,0,0,0,0,0,0,0,0,0,0,0,0,0,0,0,0,0,1.7894,1.7895,0,1.7975,1.7976,1.7977,1.7968,1.7967,1.7965,1.7964,1.8048,1.8051,1.8055,0,0,0,0,0,0,0,0,0,0,0,0,0,1.7731,1.7734,1.7894,1.7895,1.7896,1.7975,1.7976,1.7977,1.7968,1.7966,1.7965,1.7963,1.8047,1.8051,1.8055,0,0,0,0,0,0,0,0,0,0,0,0,0,1.7806,1.7735,1.7894,1.7901,1.7902,1.7975,1.7976,1.7977,1.7968,1.7966,1.7965,1.7963,1.8045,1.805,1.8055,1.8126,0,0,1.8071,1.8073,0,0,0,0,0,0,0,0,1.7802,1.7812,1.7899,1.79,1.7902,1.7959,1.7949,1.8027,1.7969,1.7943,1.7964,1.7962,1.802,1.8027,1.8047,1.813,1.8133,1.8072,1.8075,1.8077,1.8078,0,0,0,0,0,0,0,1.7796,1.7808,1.7926,1.79,1.7902,1.79,1.7908,1.7964,1.7992,1.7945,1.7945,1.7955,1.8021,1.8042,1.8048,1.8135,1.8071,1.8076,1.8079,1.8081,1.8279,1.8281,0,0,0,0,0,0,1.7789,1.7804,1.7923,1.7928,1.7846,1.7904,1.7914,1.7943,1.7991,1.7996,1.7956,1.7954,1.8034,1.8042,1.8051,1.8136,1.8077,1.8082,1.8085,1.8277,1.828,1.8282,0,0,0,0,0,0,1.7786,1.78,1.792,1.7866,1.7881,1.7909,1.7942,1.7946,1.7967,1.7999,1.8004,1.7973,1.8033,1.8044,1.8107,1.8139,1.8084,1.8089,1.8275,1.8278,1.8281,1.8307,0,0,0,0,0,0,1.7781,1.7799,1.7826,1.7867,1.7884,1.7975,1.7944,1.7949,1.7975,1.7973,1.8016,1.8021,1.8032,1.81,1.8112,1.8145,1.8093,1.8272,1.8276,1.828,1.8304,1.8311,1.8317,0,0,0,0,0,1.7775,1.783,1.7827,1.7842,1.7918,1.7976,1.7986,1.7998,1.7978,1.8005,1.8026,1.802,1.8134,1.8106,1.812,1.8155,1.827,1.8275,1.828,1.8301,1.831,1.8317,0,0,0,0,0,0,1.7793,1.7836,1.7833,1.7903,1.7936,1.7975,1.8009,1.8007,1.8046,1.8043,1.8055,1.8065,1.8128,1.8149,1.8117,1.8226,1.8199,1.8207,1.821,1.8219,1.8226,1.8219,1.8097,0,0,0,0,0,1.7805,1.7848,1.7883,1.7942,1.7958,1.7981,1.8007,1.8013,1.8048,1.8062,1.8087,1.8121,1.8165,1.8193,1.8235,1.8307,1.8316,1.8338,1.8345,1.835,1.8357,1.8395,1.8405,1.8298,1.8298,1.8298,0,0,1.783,1.7859,1.7885,1.7946,1.7972,1.8017,1.7993,1.8041,1.8074,1.8069,1.813,1.815,1.8189,1.8256,1.8287,1.8275,1.8388,1.8356,1.836,1.8364,1.8401,1.8411,1.842,1.8301,1.8301,1.83,0,0,1.7898,1.7924,1.7975,1.8002,1.8042,1.8057,1.8069,1.8109,1.8122,1.8183,1.818,1.8219,1.8294,1.8322,1.8346,1.8425,1.842,1.8438,1.8473,1.8511,1.8519,1.8527,1.8554,1.8563,1.8445,1.8445,1.8445,0,1.7923,1.799,1.8002,1.805,1.8077,1.8074,1.8125,1.8151,1.8203,1.8221,1.8207,1.83,1.8327,1.84,1.8419,1.8439,1.8453,1.8433,1.8517,1.8525,1.8532,1.8558,1.8568,1.8446,1.8446,1.8446,1.8446,0,1.802,1.8066,1.8102,1.8152,1.8183,1.8233,1.8252,1.8281,1.8285,1.8301,1.8363,1.8395,1.8442,1.8461,1.8465,1.8535,1.8526,1.8514,1.8487,1.8544,1.8568,1.8578,1.8449,1.8448,1.8448,1.8447,0,0,1.81,1.8155,1.8168,1.8191,1.8235,1.8271,1.8321,1.8367,1.8392,1.8429,1.847,1.8534,1.8523,1.855,1.8557,1.859,1.8649,1.8575,1.8576,1.8586,1.8728,1.8735,1.8746,1.8647,1.8649,1.865,1.8724,0,1.8171,1.8259,1.827,1.8348,1.839,1.8389,1.8432,1.8464,1.8481,1.8519,1.8538,1.8582,1.8565,1.8582,1.8614,1.8635,1.8678,1.863,1.8685,1.8687,1.8674,1.8759,1.8768,1.8835,1.8734,1.8735,1.8737,0,1.8266,1.8304,1.8386,1.8424,1.8442,1.8481,1.8524,1.8561,1.8597,1.8607,1.8638,1.8641,1.8692,1.8664,1.8734,1.8702,1.8725,1.8739,1.8742,1.8746,1.8714,1.8765,1.8857,1.8867,1.8752,1.8751,1.875,0,1.8315,1.8387,1.8445,1.8464,1.851,1.8537,1.8558,1.8592,1.8619,1.8657,1.8675,1.8719,1.8743,1.8777,1.8791,1.877,1.8861,1.8834,1.887,1.887,1.8888,1.8887,1.8984,1.8905,1.8905,1.8905,1.8905,0,1.8392,1.8442,1.8467,1.8503,1.8558,1.8572,1.8626,1.8646,1.8676,1.8715,1.8717,1.8754,1.8772,1.8811,1.8824,1.888,1.8891,1.89,1.8902,1.8899,1.8898,1.8913,1.8909,1.8908,1.8907,1.8906,1.8906,0,1.8455,1.8474,1.8537,1.8576,1.8587,1.8626,1.8659,1.8693,1.871,1.876,1.8772,1.8798,1.8845,1.8863,1.892,1.8928,1.8993,1.8992,1.898,1.8981,1.9015,1.9011,1.9125,1.914,1.9053,1.9053,1.9054,0,1.8503,1.8541,1.8584,1.861,1.8631,1.8674,1.8702,1.8717,1.8745,1.8789,1.8818,1.8865,1.8902,1.8977,1.9001,1.9045,1.9044,1.9082,1.9051,1.9046,1.9044,1.9041,1.9044,1.9087,1.9088,1.9088,1.9089,0,1.8585,1.8592,1.8632,1.8675,1.8708,1.8743,1.8777,1.8798,1.8818,1.8851,1.8898,1.8928,1.8986,1.9032,1.9077,1.9098,1.9097,1.9099,1.9109,1.9105,1.9096,1.9101,1.8994,1.9096,1.9095,1.9094,1.9094,1.9094,1.8641,1.8674,1.8709,1.8754,1.8781,1.8812,1.8846,1.8867,1.8907,1.8955,1.8962,1.9013,1.9048,1.9108,1.9132,1.9171,1.9162,1.9177,1.9181,1.9184,1.9186,1.9091,1.918,1.918,1.918,1.9179,1.9179,0,1.8722,1.8744,1.8785,1.8832,1.8867,1.8863,1.8901,1.893,1.8974,1.9007,1.9044,1.9099,1.9144,1.9171,1.9216,1.9243,1.9243,1.9254,1.9251,1.9256,1.9192,1.9178,1.9253,1.9253,1.9253,1.9253,1.9253,1.9253,1.8768,1.8824,1.8836,1.8905,1.8928,1.8977,1.8999,1.9028,1.9054,1.9115,1.9152,1.917,1.9201,1.9248,1.9289,1.9296,1.9312,1.9323,1.9329,1.9269,1.9261,1.9254,1.924,1.9327,1.9327,1.939,1.939,1.9391]},{"header":{"parameterUnit":"m.s-1","parameterCategory":1,"la1":30.2991,"la2":30.254,"lo1":-89.0895,"lo2":-89.0444,"dy":0.0017,"dx":0.0017,"nx":28,"ny":28,"refTime":"2025-05-18T03:00:00:Z","depth":0,"parameterNumber":3,"parameterNumberName":"V-component_of_WINDS"},"data":[0,0,0,0,0,0,0,0,0,0,0,0,0,0,0,0,0,0,0,0,0,0,0,0,0,0,0,0,0,0,0,0,0,0,0,0,0,0,0,0,0,0,0,0,0,0,0,0,0,0,0,0,0,0,0,0,0,0,4.0088,4.0089,0,4.0145,4.0145,4.0146,4.0109,4.0107,4.0105,4.0104,4.0159,4.0162,4.0165,0,0,0,0,0,0,0,0,0,0,0,0,0,3.9944,3.9947,4.0088,4.0089,4.009,4.0145,4.0145,4.0146,4.0109,4.0107,4.0105,4.0103,4.0158,4.0161,4.0165,0,0,0,0,0,0,0,0,0,0,0,0,0,4.0004,3.9948,4.0088,4.0078,4.0077,4.0145,4.0145,4.0146,4.0109,4.0107,4.0104,4.0102,4.0157,4.0161,4.0166,4.0245,0,0,4.018,4.0182,0,0,0,0,0,0,0,0,4.0001,4.001,4.0079,4.0079,4.0078,4.0117,4.0115,4.018,4.011,4.0097,4.0103,4.0101,4.0147,4.0152,4.0168,4.0248,4.025,4.018,4.0183,4.0185,4.0186,0,0,0,0,0,0,0,3.9997,4.0007,4.011,4.008,4.0079,4.0069,4.0075,4.0127,4.0136,4.0098,4.0095,4.0103,4.0146,4.0164,4.0169,4.0251,4.018,4.0184,4.0187,4.0189,4.0398,4.04,0,0,0,0,0,0,3.9994,4.0004,4.0109,4.0112,4.0033,4.0074,4.008,4.0107,4.0135,4.0137,4.0105,4.0101,4.0157,4.0164,4.0171,4.0266,4.0185,4.0189,4.0192,4.0395,4.0398,4.0401,0,0,0,0,0,0,3.9991,4.0004,4.0106,4.0057,4.007,4.0079,4.011,4.011,4.0127,4.014,4.0141,4.0122,4.0156,4.0165,4.0227,4.0267,4.0191,4.0195,4.0391,4.0396,4.04,4.0456,0,0,0,0,0,0,3.9987,4.0003,4.0034,4.0058,4.0072,4.0163,4.0112,4.0113,4.0136,4.0131,4.0156,4.0158,4.0154,4.022,4.0232,4.0272,4.0199,4.0388,4.0393,4.0398,4.0451,4.0462,4.0471,0,0,0,0,0,3.9982,4.0048,4.0036,4.0049,4.0112,4.0165,4.0173,4.0169,4.0139,4.017,4.0178,4.0157,4.0261,4.0227,4.0239,4.0282,4.0385,4.0392,4.0398,4.0446,4.046,4.0471,0,0,0,0,0,0,4.0028,4.0051,4.0038,4.0114,4.0138,4.0159,4.0198,4.0183,4.0215,4.0209,4.0201,4.0207,4.0272,4.0283,4.0245,4.036,4.0318,4.0327,4.0351,4.0364,4.0373,4.037,4.0203,0,0,0,0,0,4.0047,4.0089,4.0106,4.0171,4.0184,4.0189,4.0212,4.0206,4.0231,4.024,4.0253,4.0276,4.0314,4.0339,4.0375,4.0452,4.0456,4.0487,4.0497,4.0505,4.0513,4.0554,4.0567,4.0422,4.0422,4.0422,0,0,4.0086,4.0104,4.0131,4.0181,4.0199,4.0242,4.0198,4.0245,4.0277,4.0247,4.0307,4.0317,4.0343,4.0413,4.0444,4.0423,4.0554,4.0513,4.052,4.0523,4.0561,4.0575,4.0587,4.0426,4.0425,4.0425,0,0,4.018,4.0198,4.0254,4.0273,4.0301,4.0303,4.0317,4.034,4.0345,4.0405,4.0384,4.042,4.0486,4.0504,4.0523,4.0622,4.0603,4.0633,4.0687,4.0726,4.0738,4.0748,4.0783,4.0796,4.0641,4.0641,4.0641,0,4.0226,4.0291,4.0284,4.0334,4.0355,4.0331,4.0386,4.0404,4.0442,4.0457,4.0434,4.0515,4.053,4.0604,4.0628,4.0644,4.0658,4.0631,4.0737,4.0747,4.0756,4.079,4.0803,4.0645,4.0644,4.0644,4.0644,0,4.0345,4.039,4.0431,4.0469,4.0495,4.0548,4.0548,4.0575,4.0566,4.0571,4.0631,4.0649,4.0687,4.0704,4.0696,4.0776,4.0762,4.0738,4.0696,4.0774,4.0805,4.0818,4.065,4.0649,4.0648,4.0647,0,0,4.0471,4.0503,4.0519,4.0535,4.0563,4.0597,4.0647,4.0685,4.0708,4.0734,4.0776,4.0831,4.0808,4.0829,4.0822,4.0857,4.0934,4.0828,4.0829,4.0847,4.1022,4.104,4.1055,4.0921,4.0923,4.0925,4.102,0,4.0566,4.0655,4.065,4.0733,4.0774,4.075,4.0793,4.0814,4.0819,4.0854,4.0859,4.0898,4.0865,4.0878,4.0911,4.0917,4.0969,4.091,4.0959,4.096,4.0954,4.1072,4.1092,4.118,4.1032,4.1034,4.1036,0,4.069,4.0721,4.0808,4.0829,4.0846,4.0886,4.0919,4.0953,4.0975,4.0976,4.0999,4.0986,4.1035,4.0991,4.1058,4.1019,4.1038,4.1044,4.1047,4.1052,4.1003,4.108,4.1208,4.1222,4.1055,4.1053,4.1052,0,4.0773,4.0836,4.0897,4.0911,4.0937,4.0965,4.0977,4.0997,4.102,4.1049,4.1063,4.1097,4.1115,4.1141,4.1137,4.1106,4.1205,4.1161,4.1207,4.1207,4.1229,4.1228,4.1363,4.1241,4.1241,4.1241,4.124,0,4.0881,4.0935,4.0934,4.0971,4.103,4.1023,4.1082,4.109,4.1108,4.1145,4.1126,4.1161,4.1153,4.1188,4.1185,4.124,4.1248,4.125,4.1249,4.1252,4.1252,4.1265,4.1259,4.1244,4.1243,4.1243,4.1242,0,4.0984,4.0986,4.105,4.1069,4.1075,4.1118,4.1133,4.1167,4.117,4.1217,4.1228,4.1232,4.1272,4.127,4.1314,4.1312,4.138,4.1372,4.1373,4.1371,4.1417,4.1413,4.1565,4.1585,4.145,4.1451,4.1452,0,4.1053,4.1094,4.1118,4.1142,4.1156,4.1194,4.1217,4.1211,4.1235,4.1263,4.1294,4.1331,4.1361,4.1425,4.1431,4.1465,4.1457,4.1508,4.1462,4.1464,4.1458,4.1455,4.1459,4.1517,4.1519,4.152,4.1521,0,4.1175,4.1174,4.1208,4.1243,4.1271,4.1297,4.1322,4.1342,4.1338,4.1366,4.1406,4.1429,4.1475,4.1512,4.1544,4.1554,4.1537,4.1535,4.1547,4.1552,4.1551,4.1552,4.1398,4.1532,4.1531,4.153,4.1529,4.1529,4.1264,4.1299,4.1321,4.1359,4.1377,4.1399,4.1432,4.1439,4.1473,4.151,4.1503,4.1548,4.1568,4.1609,4.1623,4.1657,4.1638,4.1656,4.1661,4.1665,4.1671,4.1545,4.1662,4.1662,4.1662,4.1661,4.1661,0,4.1385,4.1397,4.1433,4.1468,4.1498,4.1479,4.1504,4.153,4.157,4.159,4.162,4.1666,4.1701,4.171,4.1744,4.1769,4.1762,4.1778,4.1777,4.1779,4.1685,4.1671,4.1784,4.1784,4.1784,4.1784,4.1784,4.1784,4.1452,4.151,4.1511,4.1577,4.1588,4.1633,4.1649,4.1669,4.1685,4.1737,4.1767,4.1773,4.1788,4.1822,4.1854,4.1855,4.1868,4.1888,4.1886,4.1798,4.1786,4.1774,4.1761,4.1891,4.1891,4.1978,4.1979,4.1979]}]]